Tracking 30157 objects as of 12-Feb-2025
HD Live streaming from Space Station
objects crossing your sky now

TANSTAAFL-2

Track TANSTAAFL-2 now!
10-day predictions


NORAD ID: 62378
Int'l Code: 2024-247B
Perigee: 512.7 km
Apogee: 515.3 km
Inclination: 45.0 °
Period: 94.8 minutes
Semi major axis: 6885 km
RCS: Unknown
Launch date: December 21, 2024
Source: United States (US)
Launch site: AIR FORCE WESTERN TEST RANGE (AFWTR)
Your satellite tracking list
Your tracking list is empty




NASA's NSSDC Master Catalog

Two Line Element Set (TLE):
1 62378U 24247B   25043.13926412  .00009847  00000-0  46564-3 0  9993
2 62378  44.9946  77.1730 0001879 326.7122  33.3639 15.19657378  8150
Source of the keplerian elements: AFSPC